| time (UTC) | temp F | wind direction | speed MPH | gust MPH | rain 1hr in | rain 24hr in | rain mn in | humidity % | barometer mb |
| 20260906160039 | 73 | 208 | 4.0 | 8.0 | 0.00 | 0.00 | 0.00 | 71 | 1019.4 |
| 20260906154537 | 73 | 218 | 3.0 | 7.0 | 0.00 | 0.00 | 0.00 | 72 | 1019.5 |
| 20260906153039 | 73 | 205 | 2.0 | 7.0 | 0.00 | 0.00 | 0.00 | 71 | 1019.4 |
| 20260906151534 | 72 | 158 | 4.0 | 7.0 | 0.00 | 0.00 | 0.00 | 71 | 1019.3 |
| 20260906150032 | 72 | 218 | 3.0 | 6.0 | 0.00 | 0.00 | 0.00 | 73 | 1019.4 |
| 20260906144535 | 72 | 222 | 5.0 | 9.0 | 0.00 | 0.00 | 0.00 | 72 | 1019.0 |
| 20260906143028 | 72 | 146 | 2.0 | 7.0 | 0.00 | 0.00 | 0.00 | 73 | 1018.9 |
| 20260906141626 | 71 | 226 | 3.0 | 8.0 | 0.00 | 0.00 | 0.00 | 73 | 1018.9 |
| 20260906140031 | 70 | 154 | 4.0 | 8.0 | 0.00 | 0.00 | 0.00 | 74 | 1018.9 |
| 20260906134527 | 69 | 179 | 4.0 | 9.0 | 0.00 | 0.00 | 0.00 | 75 | 1019.0 |
| 20260906133021 | 69 | 178 | 3.0 | 8.0 | 0.00 | 0.00 | 0.00 | 77 | 1019.0 |
| 20260906131518 | 68 | 172 | 4.0 | 8.0 | 0.00 | 0.00 | 0.00 | 77 | 1018.7 |
| 20260906130020 | 68 | 132 | 3.0 | 7.0 | 0.00 | 0.00 | 0.00 | 77 | 1018.7 |
| 20260906124521 | 68 | 122 | 2.0 | 5.0 | 0.00 | 0.00 | 0.00 | 77 | 1018.6 |
| 20260906123016 | 68 | 115 | 1.0 | 3.0 | 0.00 | 0.00 | 0.00 | 77 | 1018.6 |
| 20260906121512 | 67 | 122 | 0.0 | 3.0 | 0.00 | 0.00 | 0.00 | 78 | 1018.5 |
| 20260906120009 | 67 | 131 | 1.0 | 4.0 | 0.00 | 0.00 | 0.00 | 77 | 1018.4 |
| 20260906114507 | 68 | 143 | 1.0 | 3.0 | 0.00 | 0.00 | 0.00 | 77 | 1018.3 |
| 20260906113008 | 68 | 130 | 1.0 | 3.0 | 0.00 | 0.00 | 0.00 | 77 | 1018.2 |
| 20260906111508 | 68 | 129 | 0.0 | 2.0 | 0.00 | 0.00 | 0.00 | 77 | 1018.1 |
| 20260906110002 | 68 | 185 | 2.0 | 6.0 | 0.00 | 0.00 | 0.00 | 77 | 1018.1 |
| 20260906104601 | 68 | 80 | 3.0 | 8.0 | 0.00 | 0.00 | 0.00 | 77 | 1017.9 |
| 20260906103059 | 67 | 185 | 4.0 | 8.0 | 0.00 | 0.00 | 0.00 | 78 | 1017.7 |
| 20260906101557 | 67 | 205 | 2.0 | 6.0 | 0.00 | 0.00 | 0.00 | 78 | 1017.5 |
| 20260906100058 | 67 | 193 | 3.0 | 6.0 | 0.00 | 0.00 | 0.00 | 78 | 1017.1 |
| 20260906094605 | 67 | 139 | 2.0 | 7.0 | 0.00 | 0.00 | 0.00 | 77 | 1017.1 |
| 20260906093052 | 67 | 160 | 3.0 | 5.0 | 0.00 | 0.00 | 0.00 | 77 | 1017.1 |
| 20260906091602 | 68 | 201 | 2.0 | 4.0 | 0.00 | 0.00 | 0.00 | 77 | 1017.1 |
| 20260906090049 | 68 | 169 | 1.0 | 4.0 | 0.00 | 0.00 | 0.00 | 77 | 1017.1 |
| 20260906084547 | 69 | 199 | 4.0 | 8.0 | 0.00 | 0.00 | 0.00 | 76 | 1016.7 |
| 20260906083043 | 69 | 192 | 4.0 | 7.0 | 0.00 | 0.00 | 0.00 | 77 | 1016.8 |
| 20260906081543 | 69 | 129 | 1.0 | 6.0 | 0.00 | 0.00 | 0.00 | 77 | 1017.2 |
| 20260906080041 | 70 | 165 | 2.0 | 4.0 | 0.00 | 0.00 | 0.00 | 77 | 1017.2 |
| 20260906074545 | 70 | 207 | 2.0 | 4.0 | 0.00 | 0.00 | 0.00 | 76 | 1017.2 |
| 20260906073033 | 71 | 175 | 1.0 | 5.0 | 0.00 | 0.00 | 0.00 | 76 | 1017.3 |
| 20260906071532 | 71 | 202 | 2.0 | 4.0 | 0.00 | 0.00 | 0.00 | 76 | 1017.3 |
| 20260906070030 | 71 | 136 | 1.0 | 4.0 | 0.00 | 0.00 | 0.00 | 76 | 1017.5 |
| 20260906064529 | 71 | 169 | 2.0 | 6.0 | 0.00 | 0.00 | 0.00 | 76 | 1017.4 |
| 20260906063028 | 72 | 143 | 2.0 | 7.0 | 0.00 | 0.00 | 0.00 | 75 | 1017.4 |
| 20260906061525 | 72 | 153 | 2.0 | 8.0 | 0.00 | 0.00 | 0.00 | 75 | 1017.4 |
| 20260906060022 | 72 | 188 | 4.0 | 8.0 | 0.00 | 0.00 | 0.00 | 75 | 1017.2 |
| 20260906054520 | 72 | 86 | 5.0 | 8.0 | 0.00 | 0.00 | 0.00 | 75 | 1017.4 |
| 20260906053019 | 72 | 108 | 3.0 | 7.0 | 0.00 | 0.00 | 0.00 | 75 | 1017.1 |
| 20260906051517 | 72 | 96 | 5.0 | 7.0 | 0.00 | 0.00 | 0.00 | 75 | 1017.3 |
| 20260906050014 | 72 | 78 | 2.0 | 5.0 | 0.00 | 0.00 | 0.00 | 76 | 1017.1 |
| 20260906044512 | 72 | 101 | 3.0 | 5.0 | 0.00 | 0.00 | 0.00 | 76 | 1017.3 |
| 20260906043020 | 72 | 92 | 2.0 | 5.0 | 0.00 | 0.00 | 0.00 | 77 | 1017.1 |
| 20260906041509 | 71 | 119 | 2.0 | 4.0 | 0.00 | 0.00 | 0.00 | 77 | 1017.1 |
| 20260906040009 | 72 | 88 | 0.0 | 0.0 | 0.00 | 0.00 | 0.00 | 76 | 1017.0 |
| 20260906034505 | 72 | 88 | 0.0 | 1.0 | 0.00 | 0.00 | 0.00 | 76 | 1017.0 |
| 20260906033007 | 72 | 88 | 0.0 | 0.0 | 0.00 | 0.00 | 0.00 | 76 | 1016.8 |
| 20260906031501 | 72 | 88 | 0.0 | 1.0 | 0.00 | 0.00 | 0.00 | 76 | 1016.8 |
| 20260906030100 | 72 | 88 | 1.0 | 3.0 | 0.00 | 0.00 | 0.00 | 76 | 1016.9 |
| 20260906024558 | 73 | 105 | 0.0 | 0.0 | 0.00 | 0.00 | 0.00 | 76 | 1016.5 |
| 20260906023056 | 72 | 105 | 0.0 | 0.0 | 0.00 | 0.00 | 0.00 | 76 | 1016.2 |
| 20260906021550 | 73 | 105 | 0.0 | 0.0 | 0.00 | 0.00 | 0.00 | 76 | 1016.0 |
| 20260906020103 | 73 | 105 | 0.0 | 1.0 | 0.00 | 0.00 | 0.00 | 75 | 1015.8 |
| 20260906014548 | 74 | 105 | 0.0 | 1.0 | 0.00 | 0.00 | 0.00 | 74 | 1015.5 |
| 20260906013057 | 74 | 205 | 0.0 | 3.0 | 0.00 | 0.00 | 0.00 | 74 | 1015.3 |
| 20260906011559 | 75 | 129 | 1.0 | 6.0 | 0.00 | 0.00 | 0.00 | 73 | 1015.4 |
| 20260906010045 | 75 | 110 | 2.0 | 5.0 | 0.00 | 0.00 | 0.00 | 73 | 1015.1 |
| 20260906004543 | 76 | 136 | 5.0 | 8.0 | 0.00 | 0.00 | 0.00 | 73 | 1015.3 |
| 20260906003040 | 76 | 136 | 3.0 | 7.0 | 0.00 | 0.00 | 0.00 | 72 | 1015.1 |
| 20260906001540 | 77 | 138 | 3.0 | 7.0 | 0.00 | 0.00 | 0.00 | 71 | 1015.1 |
| 20260906000050 | 79 | 118 | 2.0 | 6.0 | 0.00 | 0.00 | 0.00 | 69 | 1015.0 |
| 20260905234534 | 80 | 143 | 3.0 | 8.0 | 0.00 | 0.00 | 0.00 | 67 | 1015.1 |
| 20260905233035 | 82 | 139 | 2.0 | 4.0 | 0.00 | 0.00 | 0.00 | 65 | 1015.1 |
| 20260905231529 | 81 | 121 | 3.0 | 8.0 | 0.00 | 0.00 | 0.00 | 65 | 1015.0 |
| 20260905230024 | 81 | 107 | 5.0 | 11.0 | 0.00 | 0.00 | 0.00 | 64 | 1014.8 |
| 20260905224522 | 81 | 105 | 9.0 | 13.0 | 0.00 | 0.00 | 0.00 | 63 | 1014.9 |
| 20260905223019 | 82 | 103 | 8.0 | 12.0 | 0.00 | 0.00 | 0.00 | 64 | 1014.9 |
| 20260905221516 | 82 | 108 | 7.0 | 13.0 | 0.00 | 0.00 | 0.00 | 64 | 1014.9 |
| 20260905220014 | 82 | 72 | 7.0 | 13.0 | 0.00 | 0.00 | 0.00 | 65 | 1014.9 |
| 20260905214517 | 83 | 136 | 6.0 | 13.0 | 0.00 | 0.00 | 0.00 | 66 | 1014.9 |
| 20260905213012 | 83 | 114 | 8.0 | 13.0 | 0.00 | 0.00 | 0.00 | 64 | 1015.0 |
| 20260905211509 | 84 | 87 | 7.0 | 11.0 | 0.00 | 0.00 | 0.00 | 65 | 1015.0 |
| 20260905210007 | 85 | 95 | 8.0 | 12.0 | 0.00 | 0.00 | 0.00 | 63 | 1014.9 |
| 20260905204508 | 85 | 99 | 7.0 | 12.0 | 0.00 | 0.00 | 0.00 | 63 | 1015.0 |
| 20260905203004 | 85 | 110 | 8.0 | 11.0 | 0.00 | 0.00 | 0.00 | 64 | 1014.9 |
| 20260905201508 | 85 | 76 | 8.0 | 16.0 | 0.00 | 0.00 | 0.00 | 64 | 1014.7 |
| 20260905200001 | 86 | 85 | 6.0 | 13.0 | 0.00 | 0.00 | 0.00 | 63 | 1014.8 |
| 20260905194610 | 86 | 95 | 7.0 | 11.0 | 0.00 | 0.00 | 0.00 | 64 | 1015.2 |
| 20260905193057 | 86 | 113 | 6.0 | 9.0 | 0.00 | 0.00 | 0.00 | 63 | 1015.4 |
| 20260905191558 | 86 | 79 | 6.0 | 9.0 | 0.00 | 0.00 | 0.00 | 63 | 1015.5 |
| 20260905190053 | 87 | 103 | 6.0 | 9.0 | 0.00 | 0.00 | 0.00 | 64 | 1015.5 |
| 20260905184611 | 86 | 82 | 2.0 | 9.0 | 0.00 | 0.00 | 0.00 | 65 | 1015.6 |
| 20260905183052 | 86 | 94 | 4.0 | 8.0 | 0.00 | 0.00 | 0.00 | 65 | 1015.5 |
| 20260905181556 | 86 | 134 | 4.0 | 8.0 | 0.00 | 0.00 | 0.00 | 65 | 1015.5 |
| 20260905180050 | 86 | 101 | 5.0 | 9.0 | 0.00 | 0.00 | 0.00 | 65 | 1015.4 |
| 20260905174546 | 86 | 126 | 4.0 | 7.0 | 0.00 | 0.00 | 0.00 | 65 | 1015.5 |
| 20260905173042 | 86 | 148 | 4.0 | 8.0 | 0.00 | 0.00 | 0.00 | 65 | 1015.6 |
| 20260905171542 | 86 | 82 | 6.0 | 10.0 | 0.00 | 0.00 | 0.00 | 65 | 1015.6 |
| 20260905170039 | 86 | 106 | 4.0 | 9.0 | 0.00 | 0.00 | 0.00 | 65 | 1015.7 |
| 20260905164536 | 85 | 147 | 3.0 | 9.0 | 0.00 | 0.00 | 0.00 | 66 | 1015.9 |
| 20260905163034 | 85 | 105 | 7.0 | 11.0 | 0.00 | 0.00 | 0.00 | 64 | 1015.9 |
| 20260905161631 | 85 | 103 | 7.0 | 12.0 | 0.00 | 0.00 | 0.00 | 65 | 1015.9 |